Find Amateru 4

NORAD ID: 60542 Int'l Des: 2024-149 Owner: QPS Country: J operational
LEOCIRCULARRETROGRADESSO

实时位置

正在加载3D地球...

关于 Amateru 4

正在加载描述...

即将过境

Passes for default location (London). Set your location on the main map for personalized predictions.

高度历史

Loading altitude history...

两行轨道根数

1 60542U 24149CC 26106.17888744 .00003281 00000-0 24513-3 0 9991
2 60542 97.6662 185.8774 0002570 333.5305 26.5789 15.03502059 90951
Epoch: Apr 16, 2026 • Age: 20 hours

当前状态

高度 578.5 km
速度 7.57 km/s
星下点 -62.24°S, 15.38°W
发射日期 Aug 16, 2024
运行时间 1.6 years
类型 other

技术详情

分类 Payload
质量 120.00 kg
干质量 100.00 kg
总质量 120.00 kg
长度 0.60 m
直径 0.80 m
跨度 3.60 m
形状 Hex Cyl + 2 Pan + Dish
制造商 QPS
平台类型 QSAT
阶段状态 In Orbit
所有者/国家 QPS/J

Most Searched